N6LC EHRD-EDDH

Flight info

Callsign N6LC
Flight time 0h 44m
Altitude 35000
Route ANDIK M105 RIBSO
Aircraft PC24/L-SDFGRWY/S

Departure

Time 2026-05-07 10:34
Airport Rotterdam The Hague Airport (EHRD)

Arrival

Time 2026-05-07 11:18
Airport Hamburg Helmut Schmidt Airport (EDDH)
Time Latitude Longitude Altitude Speed Heading
2026-05-07 10:09 51.94981 4.43844 -11 ft 0 kts 328°
2026-05-07 10:30 51.94982 4.43844 -11 ft 2 kts 328°
2026-05-07 10:30 51.94984 4.43791 -11 ft 7 kts 293°
2026-05-07 10:30 51.95035 4.43729 -11 ft 14 kts 326°
2026-05-07 10:31 51.95130 4.43629 -10 ft 16 kts 327°
2026-05-07 10:31 51.95222 4.43533 -10 ft 15 kts 327°
2026-05-07 10:31 51.95259 4.43447 -10 ft 9 kts 243°
2026-05-07 10:31 51.95227 4.43367 -10 ft 8 kts 236°
2026-05-07 10:32 51.95196 4.43290 -10 ft 8 kts 237°
2026-05-07 10:32 51.95165 4.43210 -10 ft 9 kts 238°
2026-05-07 10:32 51.95161 4.43114 -10 ft 9 kts 321°
2026-05-07 10:32 51.95222 4.43100 -10 ft 10 kts
2026-05-07 10:33 51.95290 4.43104 -9 ft 9 kts
2026-05-07 10:33 51.95340 4.43154 -9 ft 11 kts 57°
2026-05-07 10:33 51.95530 4.43627 -9 ft 95 kts 56°
2026-05-07 10:33 51.96019 4.44846 155 ft 153 kts 57°
2026-05-07 10:34 51.96614 4.46483 853 ft 176 kts 58°
2026-05-07 10:34 51.97240 4.48262 1875 ft 189 kts 60°
2026-05-07 10:34 51.97884 4.50217 2844 ft 206 kts 60°
2026-05-07 10:34 51.98596 4.52330 3948 ft 221 kts 62°
2026-05-07 10:35 51.99281 4.54553 5337 ft 221 kts 63°
2026-05-07 10:35 52.00146 4.56661 6514 ft 230 kts 46°
2026-05-07 10:35 52.01423 4.58275 7630 ft 237 kts 29°
2026-05-07 10:35 52.02945 4.59390 8725 ft 244 kts 24°
2026-05-07 10:36 52.04502 4.60555 9872 ft 250 kts 28°
2026-05-07 10:36 52.05868 4.62332 10928 ft 254 kts 46°
2026-05-07 10:36 52.07103 4.64426 12030 ft 259 kts 45°
2026-05-07 10:36 52.08371 4.66550 13166 ft 263 kts 45°
2026-05-07 10:37 52.09652 4.68705 14294 ft 267 kts 45°
2026-05-07 10:37 52.10951 4.70898 15306 ft 272 kts 45°
2026-05-07 10:37 52.12275 4.73137 16343 ft 277 kts 45°
2026-05-07 10:37 52.13623 4.75413 17365 ft 282 kts 45°
2026-05-07 10:38 52.14996 4.77737 18326 ft 288 kts 45°
2026-05-07 10:38 52.16445 4.80188 18748 ft 313 kts 45°
2026-05-07 10:38 52.17983 4.82797 19455 ft 321 kts 45°
2026-05-07 10:38 52.19537 4.85437 20331 ft 324 kts 45°
2026-05-07 10:39 52.21108 4.88106 21187 ft 328 kts 45°
2026-05-07 10:39 52.22701 4.90809 21963 ft 333 kts 45°
2026-05-07 10:39 52.24310 4.93553 22775 ft 336 kts 46°
2026-05-07 10:39 52.25973 4.96388 23112 ft 354 kts 46°
2026-05-07 10:40 52.27659 4.99267 23833 ft 356 kts 46°
2026-05-07 10:40 52.29380 5.02206 24452 ft 359 kts 46°
2026-05-07 10:40 52.31119 5.05177 25014 ft 363 kts 46°
2026-05-07 10:40 52.33043 5.07870 25587 ft 365 kts 33°
2026-05-07 10:41 52.35281 5.09849 26134 ft 368 kts 21°
2026-05-07 10:41 52.37730 5.11086 26676 ft 370 kts 14°
2026-05-07 10:41 52.40225 5.12168 27221 ft 372 kts 14°
2026-05-07 10:41 52.42742 5.13272 27742 ft 375 kts 14°
2026-05-07 10:42 52.45257 5.14375 28353 ft 374 kts 14°
2026-05-07 10:42 52.47772 5.15479 28963 ft 373 kts 14°
2026-05-07 10:42 52.50274 5.16579 29602 ft 372 kts 15°
2026-05-07 10:42 52.52767 5.17677 30203 ft 370 kts 15°
2026-05-07 10:43 52.55254 5.18772 30702 ft 369 kts 15°
2026-05-07 10:43 52.57732 5.19864 31162 ft 369 kts 15°
2026-05-07 10:43 52.60209 5.20960 31625 ft 368 kts 15°
2026-05-07 10:43 52.62682 5.22053 32091 ft 367 kts 15°
2026-05-07 10:44 52.65151 5.23147 32525 ft 368 kts 15°
2026-05-07 10:44 52.67593 5.24234 33176 ft 360 kts 17°
2026-05-07 10:44 52.69913 5.25776 33628 ft 358 kts 28°
2026-05-07 10:44 52.72007 5.28021 34015 ft 359 kts 39°
2026-05-07 10:45 52.73804 5.30850 34394 ft 358 kts 49°
2026-05-07 10:45 52.75256 5.34193 34644 ft 361 kts 60°
2026-05-07 10:45 52.76311 5.37954 34967 ft 361 kts 70°
2026-05-07 10:45 52.77151 5.41884 35074 ft 368 kts 70°
2026-05-07 10:46 52.78914 5.50062 35079 ft 386 kts 70°
2026-05-07 10:46 52.80744 5.58605 35083 ft 402 kts 70°
2026-05-07 10:47 52.82043 5.64693 35081 ft 410 kts 70°
2026-05-07 10:47 52.83805 5.72983 35073 ft 419 kts 70°
2026-05-07 10:48 52.85752 5.82148 35071 ft 423 kts 71°
2026-05-07 10:48 52.87677 5.91287 35061 ft 416 kts 70°
2026-05-07 10:49 52.89569 6.00291 35055 ft 413 kts 71°
2026-05-07 10:49 52.91457 6.09323 35051 ft 416 kts 71°
2026-05-07 10:50 52.93360 6.18471 35050 ft 423 kts 71°
2026-05-07 10:50 52.95258 6.27638 35053 ft 422 kts 71°
2026-05-07 10:51 52.97160 6.36856 35049 ft 423 kts 71°
2026-05-07 10:51 52.99053 6.46086 35055 ft 422 kts 71°
2026-05-07 10:52 53.00939 6.55308 35051 ft 421 kts 71°
2026-05-07 10:52 53.02809 6.64519 35077 ft 422 kts 71°
2026-05-07 10:53 53.04700 6.73848 35079 ft 427 kts 71°
2026-05-07 10:53 53.06567 6.83124 35077 ft 425 kts 71°
2026-05-07 10:54 53.08421 6.92374 35065 ft 420 kts 71°
2026-05-07 10:54 53.10265 7.01616 35060 ft 422 kts 71°
2026-05-07 10:55 53.12106 7.10887 35061 ft 422 kts 71°
2026-05-07 10:55 53.13945 7.20195 35054 ft 425 kts 72°
2026-05-07 10:56 53.15789 7.29582 35063 ft 428 kts 72°
2026-05-07 10:56 53.17632 7.39003 35065 ft 427 kts 72°
2026-05-07 10:57 53.19464 7.48423 35061 ft 426 kts 72°
2026-05-07 10:57 53.21281 7.57814 35046 ft 425 kts 72°
2026-05-07 10:58 53.22790 7.65635 35046 ft 426 kts 72°
2026-05-07 10:58 53.24603 7.75076 35045 ft 429 kts 72°
2026-05-07 10:59 53.26710 7.86101 35045 ft 429 kts 72°
2026-05-07 10:59 53.28220 7.94050 35045 ft 429 kts 72°
2026-05-07 11:00 53.30011 8.03506 35044 ft 429 kts 72°
2026-05-07 11:00 53.30889 8.08176 34941 ft 410 kts 72°
2026-05-07 11:00 53.31736 8.12679 34090 ft 404 kts 72°
2026-05-07 11:01 53.32590 8.17183 33117 ft 398 kts 71°
2026-05-07 11:01 53.33557 8.21424 32411 ft 392 kts 68°
2026-05-07 11:01 53.34565 8.25725 31852 ft 395 kts 68°
2026-05-07 11:01 53.35569 8.30069 31328 ft 405 kts 69°
2026-05-07 11:02 53.36582 8.34507 30801 ft 411 kts 69°
2026-05-07 11:02 53.37603 8.38955 30181 ft 414 kts 69°
2026-05-07 11:02 53.38638 8.43456 29452 ft 415 kts 69°
2026-05-07 11:02 53.39674 8.47976 28720 ft 415 kts 69°
2026-05-07 11:03 53.40756 8.52451 28003 ft 414 kts 65°
2026-05-07 11:03 53.41964 8.56852 27315 ft 416 kts 65°
2026-05-07 11:03 53.43166 8.61243 26679 ft 413 kts 65°
2026-05-07 11:03 53.44346 8.65634 26020 ft 412 kts 66°
2026-05-07 11:04 53.45513 8.69990 25381 ft 407 kts 65°
2026-05-07 11:04 53.46676 8.74296 24742 ft 403 kts 65°
2026-05-07 11:04 53.47828 8.78563 24122 ft 399 kts 66°
2026-05-07 11:04 53.48962 8.82800 23481 ft 397 kts 66°
2026-05-07 11:05 53.50089 8.87018 22739 ft 395 kts 66°
2026-05-07 11:05 53.51208 8.91198 22013 ft 391 kts 66°
2026-05-07 11:05 53.52317 8.95346 21309 ft 386 kts 66°
2026-05-07 11:05 53.53601 8.99237 20585 ft 379 kts 53°
2026-05-07 11:06 53.55324 9.02570 19843 ft 375 kts 43°
2026-05-07 11:06 53.57349 9.05282 19064 ft 370 kts 34°
2026-05-07 11:06 53.59454 9.07751 18301 ft 367 kts 34°
2026-05-07 11:06 53.61523 9.10229 17435 ft 361 kts 34°
2026-05-07 11:07 53.63434 9.12899 16565 ft 355 kts 49°
2026-05-07 11:07 53.64532 9.16569 15719 ft 352 kts 76°
2026-05-07 11:07 53.64550 9.20621 14899 ft 346 kts 102°
2026-05-07 11:07 53.63515 9.24205 14102 ft 339 kts 129°
2026-05-07 11:08 53.61851 9.26926 13428 ft 326 kts 140°
2026-05-07 11:08 53.60125 9.29251 12720 ft 310 kts 142°
2026-05-07 11:08 53.58433 9.31387 11989 ft 299 kts 143°
2026-05-07 11:08 53.56770 9.33429 11269 ft 292 kts 143°
2026-05-07 11:09 53.55149 9.35382 10574 ft 289 kts 143°
2026-05-07 11:09 53.53493 9.37349 9890 ft 287 kts 143°
2026-05-07 11:09 53.51888 9.39243 9164 ft 283 kts 143°
2026-05-07 11:09 53.50266 9.41131 8424 ft 278 kts 143°
2026-05-07 11:10 53.48708 9.42914 7841 ft 271 kts 143°
2026-05-07 11:10 53.47155 9.44652 7535 ft 266 kts 143°
2026-05-07 11:10 53.45726 9.46584 7211 ft 264 kts 125°
2026-05-07 11:10 53.45112 9.49441 6895 ft 258 kts 93°
2026-05-07 11:11 53.45142 9.52439 6590 ft 258 kts 85°
2026-05-07 11:11 53.45276 9.55407 6292 ft 257 kts 84°
2026-05-07 11:11 53.45434 9.58339 6024 ft 239 kts 84°
2026-05-07 11:11 53.45590 9.61016 5744 ft 225 kts 84°
2026-05-07 11:12 53.45734 9.63563 5475 ft 220 kts 84°
2026-05-07 11:12 53.46160 9.65958 5236 ft 216 kts 60°
2026-05-07 11:12 53.47074 9.67952 5064 ft 216 kts 52°
2026-05-07 11:12 53.48080 9.69843 4864 ft 219 kts 49°
2026-05-07 11:13 53.49148 9.71640 4607 ft 213 kts 46°
2026-05-07 11:13 53.50227 9.73240 4334 ft 202 kts 43°
2026-05-07 11:13 53.51217 9.74824 4037 ft 193 kts 56°
2026-05-07 11:13 53.52003 9.76591 3761 ft 183 kts 53°
2026-05-07 11:14 53.52809 9.78195 3326 ft 183 kts 52°
2026-05-07 11:14 53.53642 9.79767 3038 ft 174 kts 52°
2026-05-07 11:14 53.54404 9.81316 2679 ft 171 kts 52°
2026-05-07 11:14 53.55157 9.82843 2359 ft 166 kts 51°
2026-05-07 11:15 53.55882 9.84327 2077 ft 160 kts 53°
2026-05-07 11:15 53.56567 9.85751 1840 ft 152 kts 52°
2026-05-07 11:15 53.57206 9.87060 1545 ft 138 kts 52°
2026-05-07 11:15 53.57789 9.88253 1385 ft 130 kts 52°
2026-05-07 11:16 53.58335 9.89394 1206 ft 124 kts 52°
2026-05-07 11:16 53.58859 9.90440 1083 ft 109 kts 52°
2026-05-07 11:16 53.59351 9.91415 875 ft 108 kts 51°
2026-05-07 11:16 53.59817 9.92367 725 ft 102 kts 51°
2026-05-07 11:17 53.60283 9.93265 568 ft 104 kts 52°
2026-05-07 11:17 53.60745 9.94215 485 ft 104 kts 51°
2026-05-07 11:17 53.61208 9.95119 288 ft 105 kts 52°
2026-05-07 11:17 53.61681 9.96084 192 ft 105 kts 51°
2026-05-07 11:18 53.62140 9.97011 59 ft 97 kts 51°
2026-05-07 11:18 53.62508 9.97760 46 ft 69 kts 49°
2026-05-07 11:18 53.62721 9.98181 49 ft 29 kts 50°
2026-05-07 11:18 53.62740 9.98355 48 ft 14 kts 139°
2026-05-07 11:19 53.62695 9.98420 47 ft 0 kts 140°
2026-05-07 11:19 53.62687 9.98431 47 ft 8 kts 139°
2026-05-07 11:20 53.62677 9.98528 47 ft 9 kts 58°
2026-05-07 11:20 53.62715 9.98606 47 ft 8 kts 50°
2026-05-07 11:20 53.62706 9.98648 47 ft 5 kts 159°
2026-05-07 11:20 53.62673 9.98677 47 ft 5 kts 151°
2026-05-07 11:21 53.62658 9.98716 47 ft 3 kts 68°
2026-05-07 11:21 53.62666 9.98743 47 ft 0 kts 63°
2026-05-07 11:21 53.62668 9.98748 47 ft 0 kts 63°